Location: Chuathbaluk
(61.5726°N, 159.2454°W)
Time: 14:15:43
(UTC+00:00)

ZACube-1 - Pass Details

Date: 24 January 2021
Orbit: 583 x 666 km, 97.6° (Epoch: 01 March)

Event Time Altitude Azimuth Distance (km) Brightness Sun altitude
Rises 14:28:58 0° 21° (NNE) 3,025 ? -33.1°
Reaches altitude 10° 14:31:55 10° 41° (NE) 2,103 ? -32.7°
Maximum altitude 14:35:02 18° 84° (E) 1,635 ? -32.4°
Drops below altitude 10° 14:38:06 10° 127° (SE) 2,076 ? -32.0°
Sets 14:40:58 0° 146° (SSE) 2,970 ? -31.7°
